Time,TemperatureF,DewpointF,PressureIn,WindDirection,WindDirectionDegrees,WindSpeedMPH,WindSpeedGustMPH,Humidity,HourlyPrecipIn,Conditions,Clouds,dailyrainin,SolarRadiationWatts/m^2,SoftwareType,DateUTC
2013-02-17 00:00:00,30.2,25.2,29.68,North,11,8.0,21.0,81,0.00,,,0.00,0.0,meteohub,2013-02-17 05:00:00,
2013-02-17 00:06:00,30.0,25.0,29.68,NNW,334,9.0,19.0,81,0.00,,,0.00,0.0,meteohub,2013-02-17 05:06:00,
2013-02-17 00:11:00,30.0,25.0,29.68,North,11,12.0,18.0,81,0.00,,,0.00,0.0,meteohub,2013-02-17 05:11:00,
2013-02-17 00:16:00,29.8,24.8,29.67,North,5,17.0,18.0,81,0.00,,,0.00,0.0,meteohub,2013-02-17 05:16:00,
2013-02-17 00:21:00,29.8,24.4,29.66,NNE,17,13.0,18.0,80,0.00,,,0.00,0.0,meteohub,2013-02-17 05:21:00,
2013-02-17 00:26:00,29.8,24.4,29.67,NNE,17,11.0,20.0,80,0.00,,,0.00,0.0,meteohub,2013-02-17 05:26:00,
2013-02-17 00:31:00,29.8,24.4,29.67,North,355,9.0,23.0,80,0.00,,,0.00,0.0,meteohub,2013-02-17 05:31:00,
2013-02-17 00:36:00,29.8,24.4,29.67,North,355,10.0,23.0,80,0.00,,,0.00,0.0,meteohub,2013-02-17 05:36:00,
2013-02-17 00:42:00,29.8,24.4,29.67,WNW,292,12.0,23.0,80,0.00,,,0.00,0.0,meteohub,2013-02-17 05:42:00,
2013-02-17 00:47:00,29.8,24.4,29.67,North,5,8.0,20.0,80,0.00,,,0.00,0.0,meteohub,2013-02-17 05:47:00,
2013-02-17 00:52:00,29.7,24.3,29.69,NNE,18,6.0,20.0,80,0.00,,,0.00,0.0,meteohub,2013-02-17 05:52:00,
2013-02-17 00:57:00,29.5,23.7,29.68,North,9,7.0,20.0,79,0.00,,,0.00,0.0,meteohub,2013-02-17 05:57:00,
2013-02-17 01:02:00,29.5,23.5,29.68,North,10,5.0,20.0,78,0.00,,,0.00,0.0,meteohub,2013-02-17 06:02:00,
2013-02-17 01:07:00,29.5,23.5,29.68,North,5,8.0,20.0,78,0.00,,,0.00,0.0,meteohub,2013-02-17 06:07:00,
2013-02-17 01:12:00,29.3,23.4,29.67,NNE,12,10.0,18.0,78,0.00,,,0.00,0.0,meteohub,2013-02-17 06:12:00,
2013-02-17 01:17:00,29.1,23.2,29.67,NE,40,14.0,16.0,78,0.00,,,0.00,0.0,meteohub,2013-02-17 06:17:00,
2013-02-17 01:22:00,29.1,23.2,29.66,North,5,10.0,23.0,78,0.00,,,0.00,0.0,meteohub,2013-02-17 06:22:00,
2013-02-17 01:27:00,28.9,22.6,29.66,North,9,15.0,23.0,77,0.00,,,0.00,0.0,meteohub,2013-02-17 06:27:00,
2013-02-17 01:32:00,28.6,22.3,29.66,North,5,13.0,20.0,77,0.00,,,0.00,0.0,meteohub,2013-02-17 06:32:00,
2013-02-17 01:38:00,28.2,22.8,29.65,NNE,20,13.0,25.0,80,0.00,,,0.00,0.0,meteohub,2013-02-17 06:38:00,
2013-02-17 01:43:00,27.5,23.0,29.65,North,9,17.0,30.0,83,0.00,,,0.00,0.0,meteohub,2013-02-17 06:43:00,
2013-02-17 01:48:00,27.0,23.0,29.65,NE,34,12.0,34.0,85,0.00,,,0.00,0.0,meteohub,2013-02-17 06:48:00,
2013-02-17 01:53:00,26.6,23.0,29.65,NNE,22,5.0,34.0,86,0.00,,,0.00,0.0,meteohub,2013-02-17 06:53:00,
2013-02-17 01:58:00,26.4,22.8,29.64,NNE,13,15.0,34.0,86,0.00,,,0.00,0.0,meteohub,2013-02-17 06:58:00,
2013-02-17 02:03:00,26.4,22.5,29.64,NNE,30,20.0,28.0,85,0.00,,,0.00,0.0,meteohub,2013-02-17 07:03:00,
2013-02-17 02:08:00,26.8,21.7,29.64,NNE,16,16.0,31.0,81,0.00,,,0.00,0.0,meteohub,2013-02-17 07:08:00,
2013-02-17 02:13:00,27.1,21.6,29.64,NNW,331,17.0,33.0,79,0.00,,,0.00,0.0,meteohub,2013-02-17 07:13:00,
2013-02-17 02:19:00,27.3,20.8,29.64,North,5,25.0,33.0,76,0.00,,,0.00,0.0,meteohub,2013-02-17 07:19:00,
2013-02-17 02:24:00,27.5,19.9,29.65,NNW,341,10.0,30.0,73,0.00,,,0.00,0.0,meteohub,2013-02-17 07:24:00,
2013-02-17 02:29:00,27.7,18.9,29.65,North,9,20.0,30.0,69,0.00,,,0.00,0.0,meteohub,2013-02-17 07:29:00,
2013-02-17 02:34:00,27.9,18.3,29.65,North,355,18.0,30.0,67,0.00,,,0.00,0.0,meteohub,2013-02-17 07:34:00,
2013-02-17 02:39:00,27.9,17.6,29.65,North,355,13.0,27.0,65,0.00,,,0.00,0.0,meteohub,2013-02-17 07:39:00,
2013-02-17 02:44:00,28.0,17.8,29.64,North,355,12.0,27.0,65,0.00,,,0.00,0.0,meteohub,2013-02-17 07:44:00,
2013-02-17 02:50:00,28.0,17.4,29.63,NW,323,10.0,29.0,64,0.00,,,0.00,0.0,meteohub,2013-02-17 07:50:00,
2013-02-17 02:55:00,27.9,16.9,29.63,North,355,17.0,29.0,63,0.00,,,0.00,0.0,meteohub,2013-02-17 07:55:00,
2013-02-17 03:00:00,27.9,16.9,29.63,NNE,15,10.0,29.0,63,0.00,,,0.00,0.0,meteohub,2013-02-17 08:00:00,
2013-02-17 03:05:00,27.9,16.9,29.63,North,355,13.0,32.0,63,0.00,,,0.00,0.0,meteohub,2013-02-17 08:05:00,
2013-02-17 03:10:00,27.9,16.9,29.63,North,0,15.0,32.0,63,0.00,,,0.00,0.0,meteohub,2013-02-17 08:10:00,
2013-02-17 03:15:00,27.9,16.5,29.63,North,11,11.0,32.0,62,0.00,,,0.00,0.0,meteohub,2013-02-17 08:15:00,
2013-02-17 03:21:00,27.9,16.2,29.63,North,0,9.0,30.0,61,0.00,,,0.00,0.0,meteohub,2013-02-17 08:21:00,
2013-02-17 03:26:00,28.0,16.3,29.63,NNE,22,18.0,30.0,61,0.00,,,0.00,0.0,meteohub,2013-02-17 08:26:00,
2013-02-17 03:31:00,28.0,16.3,29.63,North,0,12.0,22.0,61,0.00,,,0.00,0.0,meteohub,2013-02-17 08:31:00,
2013-02-17 03:36:00,28.0,16.0,29.62,NNW,343,9.0,21.0,60,0.00,,,0.00,0.0,meteohub,2013-02-17 08:36:00,
2013-02-17 03:41:00,28.0,16.0,29.62,NNE,28,15.0,24.0,60,0.00,,,0.00,0.0,meteohub,2013-02-17 08:41:00,
2013-02-17 03:46:00,28.0,16.0,29.61,North,355,10.0,24.0,60,0.00,,,0.00,0.0,meteohub,2013-02-17 08:46:00,
2013-02-17 03:52:00,28.0,16.0,29.60,North,9,16.0,24.0,60,0.00,,,0.00,0.0,meteohub,2013-02-17 08:52:00,
2013-02-17 03:57:00,27.9,15.8,29.60,North,9,17.0,27.0,60,0.00,,,0.00,0.0,meteohub,2013-02-17 08:57:00,
2013-02-17 04:02:00,27.9,15.4,29.61,NNE,22,11.0,27.0,59,0.00,,,0.00,0.0,meteohub,2013-02-17 09:02:00,
2013-02-17 04:07:00,28.0,15.6,29.60,NNE,33,7.0,27.0,59,0.00,,,0.00,0.0,meteohub,2013-02-17 09:07:00,
2013-02-17 04:12:00,27.9,15.4,29.60,NNW,331,14.0,25.0,59,0.00,,,0.00,0.0,meteohub,2013-02-17 09:12:00,
2013-02-17 04:17:00,28.0,15.6,29.60,NW,319,15.0,24.0,59,0.00,,,0.00,0.0,meteohub,2013-02-17 09:17:00,
2013-02-17 04:22:00,28.0,15.3,29.60,North,10,8.0,24.0,58,0.00,,,0.00,0.0,meteohub,2013-02-17 09:22:00,
2013-02-17 04:27:00,28.0,15.6,29.60,NW,319,11.0,24.0,59,0.00,,,0.00,0.0,meteohub,2013-02-17 09:27:00,
2013-02-17 04:32:00,28.0,15.6,29.60,North,355,14.0,23.0,59,0.00,,,0.00,0.0,meteohub,2013-02-17 09:32:00,
2013-02-17 04:37:00,27.9,15.4,29.60,North,0,19.0,23.0,59,0.00,,,0.00,0.0,meteohub,2013-02-17 09:37:00,
2013-02-17 04:42:00,27.9,15.4,29.60,North,11,18.0,23.0,59,0.00,,,0.00,0.0,meteohub,2013-02-17 09:42:00,
2013-02-17 04:48:00,27.7,15.3,29.60,NNE,31,17.0,28.0,59,0.00,,,0.00,0.0,meteohub,2013-02-17 09:48:00,
2013-02-17 04:53:00,27.5,15.1,29.60,North,350,25.0,32.0,59,0.00,,,0.00,0.0,meteohub,2013-02-17 09:53:00,
2013-02-17 04:58:00,27.5,15.4,29.60,NNE,22,20.0,32.0,60,0.00,,,0.00,0.0,meteohub,2013-02-17 09:58:00,
2013-02-17 05:03:00,27.3,15.3,29.60,North,5,19.0,32.0,60,0.00,,,0.00,0.0,meteohub,2013-02-17 10:03:00,
2013-02-17 05:08:00,27.1,15.4,29.60,NNE,17,31.0,31.0,61,0.00,,,0.00,0.0,meteohub,2013-02-17 10:08:00,
2013-02-17 05:13:00,27.1,15.4,29.59,NNE,25,18.0,30.0,61,0.00,,,0.00,0.0,meteohub,2013-02-17 10:13:00,
2013-02-17 05:18:00,27.0,15.3,29.58,North,0,11.0,31.0,61,0.00,,,0.00,0.0,meteohub,2013-02-17 10:18:00,
2013-02-17 05:23:00,27.0,15.6,29.57,North,355,22.0,31.0,62,0.00,,,0.00,0.0,meteohub,2013-02-17 10:23:00,
2013-02-17 05:29:00,27.0,15.6,29.56,North,350,15.0,30.0,62,0.00,,,0.00,0.0,meteohub,2013-02-17 10:29:00,
2013-02-17 05:34:00,26.8,15.1,29.56,NW,320,13.0,29.0,61,0.00,,,0.00,0.0,meteohub,2013-02-17 10:34:00,
2013-02-17 05:39:00,27.0,15.3,29.57,North,355,7.0,26.0,61,0.00,,,0.00,0.0,meteohub,2013-02-17 10:39:00,
2013-02-17 05:44:00,27.0,15.3,29.57,NNW,347,6.0,23.0,61,0.00,,,0.00,0.0,meteohub,2013-02-17 10:44:00,
2013-02-17 05:49:00,27.0,14.9,29.58,NNE,29,16.0,23.0,60,0.00,,,0.00,0.0,meteohub,2013-02-17 10:49:00,
2013-02-17 05:54:00,27.0,14.2,29.58,NNW,348,10.0,19.0,58,0.00,,,0.00,0.0,meteohub,2013-02-17 10:54:00,
2013-02-17 06:00:00,27.0,13.8,29.57,North,9,9.0,19.0,57,0.00,,,0.00,0.0,meteohub,2013-02-17 11:00:00,
2013-02-17 06:05:00,27.0,13.3,29.57,North,5,7.0,18.0,56,0.00,,,0.00,0.0,meteohub,2013-02-17 11:05:00,
2013-02-17 06:10:00,27.1,14.0,29.57,NNE,13,7.0,21.0,57,0.00,,,0.00,0.0,meteohub,2013-02-17 11:10:00,
2013-02-17 06:15:00,27.1,13.5,29.56,NNW,338,12.0,21.0,56,0.00,,,0.00,0.0,meteohub,2013-02-17 11:15:00,
2013-02-17 06:20:00,27.1,11.8,29.56,WNW,301,13.0,18.0,52,0.00,,,0.00,0.0,meteohub,2013-02-17 11:20:00,
2013-02-17 06:25:00,27.1,11.5,29.55,NW,322,9.0,22.0,51,0.00,,,0.00,0.0,meteohub,2013-02-17 11:25:00,
2013-02-17 06:31:00,27.1,10.9,29.54,North,355,10.0,26.0,50,0.00,,,0.00,0.0,meteohub,2013-02-17 11:31:00,
2013-02-17 06:36:00,27.1,10.9,29.54,NNW,328,15.0,26.0,50,0.00,,,0.00,0.0,meteohub,2013-02-17 11:36:00,
2013-02-17 06:41:00,27.0,10.4,29.55,NW,317,12.0,26.0,49,0.00,,,0.00,0.0,meteohub,2013-02-17 11:41:00,
2013-02-17 06:46:00,26.8,10.6,29.55,NNW,336,13.0,25.0,50,0.00,,,0.00,0.0,meteohub,2013-02-17 11:46:00,
2013-02-17 06:51:00,26.8,11.1,29.55,NNW,327,12.0,27.0,51,0.00,,,0.00,0.0,meteohub,2013-02-17 11:51:00,
2013-02-17 06:56:00,26.6,10.9,29.55,NW,313,12.0,27.0,51,0.00,,,0.00,0.0,meteohub,2013-02-17 11:56:00,
2013-02-17 07:01:00,26.4,10.8,29.55,NNW,329,13.0,27.0,51,0.00,,,0.00,5.0,meteohub,2013-02-17 12:01:00,
2013-02-17 07:07:00,26.2,10.6,29.55,NNW,340,14.0,22.0,51,0.00,,,0.00,7.0,meteohub,2013-02-17 12:07:00,
2013-02-17 07:12:00,26.1,10.4,29.55,NW,322,12.0,25.0,51,0.00,,,0.00,11.0,meteohub,2013-02-17 12:12:00,
2013-02-17 07:17:00,26.1,10.0,29.55,North,9,10.0,25.0,50,0.00,,,0.00,12.0,meteohub,2013-02-17 12:17:00,
2013-02-17 07:22:00,25.9,10.2,29.56,NW,323,8.0,25.0,51,0.00,,,0.00,16.0,meteohub,2013-02-17 12:22:00,
2013-02-17 07:27:00,25.9,10.2,29.56,NNW,332,14.0,27.0,51,0.00,,,0.00,19.0,meteohub,2013-02-17 12:27:00,
2013-02-17 07:32:00,25.7,10.0,29.56,NNE,16,13.0,27.0,51,0.00,,,0.00,19.0,meteohub,2013-02-17 12:32:00,
2013-02-17 07:37:00,25.5,9.5,29.56,NNW,336,23.0,23.0,50,0.00,,,0.00,21.0,meteohub,2013-02-17 12:37:00,
2013-02-17 07:42:00,25.3,9.7,29.56,NW,309,19.0,28.0,51,0.00,,,0.00,23.0,meteohub,2013-02-17 12:42:00,
2013-02-17 07:47:00,25.3,9.3,29.56,NNW,327,19.0,29.0,50,0.00,,,0.00,26.0,meteohub,2013-02-17 12:47:00,
2013-02-17 07:52:00,25.3,9.7,29.56,NW,307,14.0,29.0,51,0.00,,,0.00,32.0,meteohub,2013-02-17 12:52:00,
2013-02-17 07:57:00,25.3,9.7,29.56,NW,322,20.0,29.0,51,0.00,,,0.00,33.0,meteohub,2013-02-17 12:57:00,
2013-02-17 08:02:00,25.3,9.3,29.56,NW,306,11.0,25.0,50,0.00,,,0.00,40.0,meteohub,2013-02-17 13:02:00,
2013-02-17 08:07:00,25.2,8.6,29.56,NW,326,20.0,25.0,49,0.00,,,0.00,47.0,meteohub,2013-02-17 13:07:00,
2013-02-17 08:12:00,25.2,9.1,29.55,NW,316,10.0,30.0,50,0.00,,,0.00,54.0,meteohub,2013-02-17 13:12:00,
2013-02-17 08:17:00,25.2,9.1,29.55,WNW,303,14.0,30.0,50,0.00,,,0.00,62.0,meteohub,2013-02-17 13:17:00,
2013-02-17 08:22:00,25.0,8.6,29.55,NNW,327,13.0,29.0,49,0.00,,,0.00,69.0,meteohub,2013-02-17 13:22:00,
2013-02-17 08:27:00,25.0,8.6,29.54,NW,315,18.0,29.0,49,0.00,,,0.00,72.0,meteohub,2013-02-17 13:27:00,
2013-02-17 08:32:00,25.0,8.6,29.54,NW,318,18.0,32.0,49,0.00,,,0.00,81.0,meteohub,2013-02-17 13:32:00,
2013-02-17 08:37:00,24.6,8.2,29.54,NNW,331,13.0,34.0,49,0.00,,,0.00,88.0,meteohub,2013-02-17 13:37:00,
2013-02-17 08:42:00,24.6,8.2,29.54,NW,326,12.0,36.0,49,0.00,,,0.00,95.0,meteohub,2013-02-17 13:42:00,
2013-02-17 08:47:00,24.6,9.1,29.54,NW,324,12.0,36.0,51,0.00,,,0.00,104.0,meteohub,2013-02-17 13:47:00,
2013-02-17 08:52:00,24.8,9.3,29.54,NW,315,12.0,29.0,51,0.00,,,0.00,107.0,meteohub,2013-02-17 13:52:00,
2013-02-17 08:57:00,25.0,9.3,29.54,NW,309,8.0,25.0,51,0.00,,,0.00,113.0,meteohub,2013-02-17 13:57:00,
2013-02-17 09:02:00,25.2,9.5,29.54,NW,315,13.0,25.0,51,0.00,,,0.00,118.0,meteohub,2013-02-17 14:02:00,
2013-02-17 09:07:00,25.0,9.3,29.54,NNW,345,29.0,29.0,51,0.00,,,0.00,123.0,meteohub,2013-02-17 14:07:00,
2013-02-17 09:12:00,25.0,9.3,29.54,North,0,21.0,32.0,51,0.00,,,0.00,127.0,meteohub,2013-02-17 14:12:00,
2013-02-17 09:17:00,25.0,9.9,29.55,NNW,346,10.0,32.0,52,0.00,,,0.00,132.0,meteohub,2013-02-17 14:17:00,
2013-02-17 09:22:00,25.0,9.0,29.55,North,0,11.0,32.0,50,0.00,,,0.00,141.0,meteohub,2013-02-17 14:22:00,
2013-02-17 09:27:00,24.8,9.7,29.55,NW,325,23.0,30.0,52,0.00,,,0.00,153.0,meteohub,2013-02-17 14:27:00,
2013-02-17 09:32:00,24.8,9.3,29.55,NW,314,20.0,36.0,51,0.00,,,0.00,167.0,meteohub,2013-02-17 14:32:00,
2013-02-17 09:37:00,24.6,8.6,29.54,WNW,298,13.0,36.0,50,0.00,,,0.00,178.0,meteohub,2013-02-17 14:37:00,
2013-02-17 09:42:00,24.6,8.2,29.54,NW,323,21.0,36.0,49,0.00,,,0.00,188.0,meteohub,2013-02-17 14:42:00,
2013-02-17 09:47:00,24.8,8.8,29.55,NNW,338,25.0,34.0,50,0.00,,,0.00,197.0,meteohub,2013-02-17 14:47:00,
2013-02-17 09:52:00,25.2,10.0,29.54,NNW,329,10.0,34.0,52,0.00,,,0.00,199.0,meteohub,2013-02-17 14:52:00,
2013-02-17 09:57:00,25.2,8.6,29.54,NNW,329,9.0,33.0,49,0.00,,,0.00,206.0,meteohub,2013-02-17 14:57:00,
2013-02-17 10:02:00,25.3,8.8,29.54,North,350,7.0,33.0,49,0.00,,,0.00,225.0,meteohub,2013-02-17 15:02:00,
2013-02-17 10:07:00,25.5,9.0,29.54,NNW,333,14.0,29.0,49,0.00,,,0.00,244.0,meteohub,2013-02-17 15:07:00,
2013-02-17 10:12:00,25.9,10.2,29.54,NNW,338,21.0,27.0,51,0.00,,,0.00,251.0,meteohub,2013-02-17 15:12:00,
2013-02-17 10:17:00,25.9,9.3,29.55,NNW,329,24.0,24.0,49,0.00,,,0.00,243.0,meteohub,2013-02-17 15:17:00,
2013-02-17 10:22:00,25.9,9.0,29.54,NNW,340,21.0,30.0,48,0.00,,,0.00,243.0,meteohub,2013-02-17 15:22:00,
2013-02-17 10:27:00,26.1,9.1,29.55,NW,305,29.0,30.0,48,0.00,,,0.00,257.0,meteohub,2013-02-17 15:27:00,
2013-02-17 10:32:00,26.1,10.0,29.55,NW,316,25.0,33.0,50,0.00,,,0.00,264.0,meteohub,2013-02-17 15:32:00,
2013-02-17 10:37:00,26.1,8.6,29.55,NW,305,21.0,33.0,47,0.00,,,0.00,265.0,meteohub,2013-02-17 15:37:00,
2013-02-17 10:42:00,26.1,8.6,29.55,NNE,14,11.0,33.0,47,0.00,,,0.00,287.0,meteohub,2013-02-17 15:42:00,
2013-02-17 10:47:00,26.1,9.1,29.55,NNW,331,16.0,33.0,48,0.00,,,0.00,302.0,meteohub,2013-02-17 15:47:00,
2013-02-17 10:52:00,26.2,9.1,29.55,NW,311,20.0,32.0,48,0.00,,,0.00,297.0,meteohub,2013-02-17 15:52:00,
2013-02-17 10:57:00,26.2,8.8,29.55,WNW,298,19.0,32.0,47,0.00,,,0.00,301.0,meteohub,2013-02-17 15:57:00,
2013-02-17 11:02:00,26.4,9.3,29.55,NNW,330,27.0,32.0,48,0.00,,,0.00,309.0,meteohub,2013-02-17 16:02:00,
2013-02-17 11:07:00,26.8,9.3,29.55,WNW,292,14.0,31.0,47,0.00,,,0.00,313.0,meteohub,2013-02-17 16:07:00,
2013-02-17 11:12:00,26.8,9.3,29.55,NNW,329,21.0,30.0,47,0.00,,,0.00,316.0,meteohub,2013-02-17 16:12:00,
2013-02-17 11:17:00,26.8,9.3,29.55,NNW,327,20.0,30.0,47,0.00,,,0.00,336.0,meteohub,2013-02-17 16:17:00,
2013-02-17 11:22:00,26.8,9.3,29.55,NNW,333,16.0,31.0,47,0.00,,,0.00,350.0,meteohub,2013-02-17 16:22:00,
2013-02-17 11:27:00,27.1,9.5,29.55,NNW,331,9.0,31.0,47,0.00,,,0.00,380.0,meteohub,2013-02-17 16:27:00,
2013-02-17 11:32:00,27.9,11.1,29.55,North,350,14.0,31.0,49,0.00,,,0.00,399.0,meteohub,2013-02-17 16:32:00,
2013-02-17 11:37:00,28.2,11.1,29.55,WNW,298,19.0,31.0,48,0.00,,,0.00,406.0,meteohub,2013-02-17 16:37:00,
2013-02-17 11:42:00,28.2,10.0,29.55,NNW,342,9.0,30.0,46,0.00,,,0.00,418.0,meteohub,2013-02-17 16:42:00,
2013-02-17 11:47:00,28.4,9.7,29.55,NNW,335,9.0,30.0,45,0.00,,,0.00,422.0,meteohub,2013-02-17 16:47:00,
2013-02-17 11:52:00,28.8,11.1,29.55,NW,311,20.0,29.0,47,0.00,,,0.00,404.0,meteohub,2013-02-17 16:52:00,
2013-02-17 11:57:00,28.4,9.3,29.55,NW,304,14.0,32.0,44,0.00,,,0.00,415.0,meteohub,2013-02-17 16:57:00,
2013-02-17 12:02:00,28.2,9.7,29.55,North,11,13.0,32.0,45,0.00,,,0.00,396.0,meteohub,2013-02-17 17:02:00,
2013-02-17 12:07:00,28.8,9.7,29.55,NW,325,6.0,32.0,44,0.00,,,0.00,392.0,meteohub,2013-02-17 17:07:00,
2013-02-17 12:12:00,28.8,9.1,29.55,North,5,20.0,35.0,43,0.00,,,0.00,366.0,meteohub,2013-02-17 17:12:00,
2013-02-17 12:17:00,28.4,8.2,29.55,NNW,336,17.0,35.0,42,0.00,,,0.00,388.0,meteohub,2013-02-17 17:17:00,
2013-02-17 12:22:00,28.6,8.4,29.55,North,355,17.0,35.0,42,0.00,,,0.00,406.0,meteohub,2013-02-17 17:22:00,
2013-02-17 12:27:00,28.8,9.1,29.55,NNW,344,11.0,35.0,43,0.00,,,0.00,461.0,meteohub,2013-02-17 17:27:00,
2013-02-17 12:32:00,29.5,9.7,29.56,WNW,290,30.0,35.0,43,0.00,,,0.00,503.0,meteohub,2013-02-17 17:32:00,
2013-02-17 12:37:00,29.5,8.6,29.55,NW,306,8.0,32.0,41,0.00,,,0.00,512.0,meteohub,2013-02-17 17:37:00,
2013-02-17 12:42:00,29.7,7.7,29.55,NW,326,18.0,32.0,39,0.00,,,0.00,527.0,meteohub,2013-02-17 17:42:00,
2013-02-17 12:47:00,29.7,7.7,29.56,NW,319,21.0,37.0,39,0.00,,,0.00,541.0,meteohub,2013-02-17 17:47:00,
2013-02-17 12:52:00,29.5,8.1,29.56,West,259,15.0,47.0,40,0.00,,,0.00,552.0,meteohub,2013-02-17 17:52:00,
2013-02-17 12:57:00,29.7,8.2,29.56,NW,314,17.0,47.0,40,0.00,,,0.00,513.0,meteohub,2013-02-17 17:57:00,
2013-02-17 13:02:00,29.8,9.0,29.56,NW,315,13.0,47.0,41,0.00,,,0.00,517.0,meteohub,2013-02-17 18:02:00,
2013-02-17 13:07:00,30.4,9.0,29.56,West,281,6.0,38.0,40,0.00,,,0.00,504.0,meteohub,2013-02-17 18:07:00,
2013-02-17 13:12:00,30.9,9.5,29.56,WNW,302,17.0,32.0,40,0.00,,,0.00,529.0,meteohub,2013-02-17 18:12:00,
2013-02-17 13:17:00,30.9,8.2,29.57,NNE,24,18.0,30.0,38,0.00,,,0.00,510.0,meteohub,2013-02-17 18:17:00,
2013-02-17 13:22:00,30.4,7.9,29.57,North,355,20.0,35.0,38,0.00,,,0.00,462.0,meteohub,2013-02-17 18:22:00,
2013-02-17 13:27:00,29.7,7.2,29.57,NW,314,9.0,40.0,38,0.00,,,0.00,468.0,meteohub,2013-02-17 18:27:00,
2013-02-17 13:32:00,29.8,7.9,29.58,West,279,15.0,40.0,39,0.00,,,0.00,494.0,meteohub,2013-02-17 18:32:00,
2013-02-17 13:37:00,30.0,8.6,29.57,NW,311,13.0,40.0,40,0.00,,,0.00,526.0,meteohub,2013-02-17 18:37:00,
2013-02-17 13:42:00,30.4,8.4,29.57,North,0,11.0,41.0,39,0.00,,,0.00,577.0,meteohub,2013-02-17 18:42:00,
2013-02-17 13:47:00,30.4,8.4,29.58,NNW,327,19.0,41.0,39,0.00,,,0.00,585.0,meteohub,2013-02-17 18:47:00,
2013-02-17 13:52:00,30.6,7.9,29.58,NNW,334,19.0,36.0,38,0.00,,,0.00,557.0,meteohub,2013-02-17 18:52:00,
2013-02-17 13:57:00,30.9,9.5,29.57,NW,315,21.0,36.0,40,0.00,,,0.00,520.0,meteohub,2013-02-17 18:57:00,
2013-02-17 14:02:00,31.1,8.4,29.57,NW,326,13.0,36.0,38,0.00,,,0.00,478.0,meteohub,2013-02-17 19:02:00,
2013-02-17 14:07:00,30.9,6.4,29.58,NW,304,31.0,34.0,35,0.00,,,0.00,422.0,meteohub,2013-02-17 19:07:00,
2013-02-17 14:12:00,30.6,6.1,29.58,NW,306,16.0,44.0,35,0.00,,,0.00,403.0,meteohub,2013-02-17 19:12:00,
2013-02-17 14:17:00,30.4,6.6,29.58,WNW,298,15.0,44.0,36,0.00,,,0.00,429.0,meteohub,2013-02-17 19:17:00,
2013-02-17 14:22:00,30.7,6.3,29.57,NW,304,15.0,44.0,35,0.00,,,0.00,448.0,meteohub,2013-02-17 19:22:00,
2013-02-17 14:27:00,30.7,5.7,29.58,NNW,342,14.0,38.0,34,0.00,,,0.00,497.0,meteohub,2013-02-17 19:27:00,
2013-02-17 14:32:00,31.5,7.5,29.58,North,5,13.0,42.0,36,0.00,,,0.00,399.0,meteohub,2013-02-17 19:32:00,
2013-02-17 14:37:00,31.1,6.1,29.59,NNW,342,10.0,42.0,34,0.00,,,0.00,322.0,meteohub,2013-02-17 19:37:00,
2013-02-17 14:42:00,30.7,5.0,29.59,NW,325,17.0,38.0,33,0.00,,,0.00,399.0,meteohub,2013-02-17 19:42:00,
2013-02-17 14:47:00,30.7,6.3,29.60,NW,319,2.0,38.0,35,0.00,,,0.00,302.0,meteohub,2013-02-17 19:47:00,
2013-02-17 14:52:00,30.7,7.0,29.60,NW,326,19.0,36.0,36,0.00,,,0.00,355.0,meteohub,2013-02-17 19:52:00,
2013-02-17 14:57:00,31.3,8.1,29.59,NW,306,6.0,36.0,37,0.00,,,0.00,359.0,meteohub,2013-02-17 19:57:00,
2013-02-17 15:02:00,31.5,6.3,29.60,NW,314,14.0,36.0,34,0.00,,,0.00,387.0,meteohub,2013-02-17 20:02:00,
2013-02-17 15:07:00,31.3,6.1,29.60,WNW,294,20.0,31.0,34,0.00,,,0.00,411.0,meteohub,2013-02-17 20:07:00,
2013-02-17 15:12:00,31.5,5.7,29.60,NNW,329,24.0,32.0,33,0.00,,,0.00,418.0,meteohub,2013-02-17 20:12:00,
2013-02-17 15:17:00,31.3,6.1,29.60,SSE,153,19.0,34.0,34,0.00,,,0.00,431.0,meteohub,2013-02-17 20:17:00,
2013-02-17 15:22:00,31.3,4.8,29.61,NNW,327,26.0,38.0,32,0.00,,,0.00,392.0,meteohub,2013-02-17 20:22:00,
2013-02-17 15:27:00,31.1,5.4,29.61,NNE,15,9.0,38.0,33,0.00,,,0.00,343.0,meteohub,2013-02-17 20:27:00,
2013-02-17 15:32:00,31.1,6.6,29.60,NW,326,14.0,41.0,35,0.00,,,0.00,265.0,meteohub,2013-02-17 20:32:00,
2013-02-17 15:37:00,31.1,6.6,29.61,NNE,16,19.0,41.0,35,0.00,,,0.00,243.0,meteohub,2013-02-17 20:37:00,
2013-02-17 15:42:00,30.7,5.7,29.61,NW,313,21.0,33.0,34,0.00,,,0.00,230.0,meteohub,2013-02-17 20:42:00,
2013-02-17 15:47:00,30.7,6.3,29.61,NNW,332,14.0,33.0,35,0.00,,,0.00,232.0,meteohub,2013-02-17 20:47:00,
2013-02-17 15:52:00,30.6,5.5,29.62,WNW,297,19.0,33.0,34,0.00,,,0.00,211.0,meteohub,2013-02-17 20:52:00,
2013-02-17 15:57:00,30.6,6.8,29.61,NNE,24,18.0,29.0,36,0.00,,,0.00,206.0,meteohub,2013-02-17 20:57:00,
2013-02-17 16:02:00,30.6,5.5,29.62,NNW,345,16.0,34.0,34,0.00,,,0.00,225.0,meteohub,2013-02-17 21:02:00,
2013-02-17 16:07:00,30.6,5.5,29.62,North,355,15.0,34.0,34,0.00,,,0.00,181.0,meteohub,2013-02-17 21:07:00,
2013-02-17 16:12:00,30.6,6.1,29.62,WNW,284,14.0,29.0,35,0.00,,,0.00,206.0,meteohub,2013-02-17 21:12:00,
2013-02-17 16:17:00,30.6,6.8,29.62,NW,313,12.0,29.0,36,0.00,,,0.00,151.0,meteohub,2013-02-17 21:17:00,
2013-02-17 16:22:00,30.4,6.1,29.63,NW,309,23.0,29.0,35,0.00,,,0.00,134.0,meteohub,2013-02-17 21:22:00,
2013-02-17 16:27:00,30.0,4.5,29.63,NNW,327,14.0,29.0,33,0.00,,,0.00,120.0,meteohub,2013-02-17 21:27:00,
2013-02-17 16:32:00,29.7,4.6,29.63,NNW,336,15.0,42.0,34,0.00,,,0.00,111.0,meteohub,2013-02-17 21:32:00,
2013-02-17 16:37:00,29.5,3.9,29.63,NNW,329,10.0,42.0,33,0.00,,,0.00,95.0,meteohub,2013-02-17 21:37:00,
2013-02-17 16:42:00,29.1,4.3,29.64,NNW,333,22.0,32.0,34,0.00,,,0.00,79.0,meteohub,2013-02-17 21:42:00,
2013-02-17 16:47:00,28.9,4.6,29.64,NW,309,1.0,34.0,35,0.00,,,0.00,65.0,meteohub,2013-02-17 21:47:00,
2013-02-17 16:52:00,28.9,4.6,29.64,NW,323,9.0,34.0,35,0.00,,,0.00,69.0,meteohub,2013-02-17 21:52:00,
2013-02-17 16:57:00,28.9,5.4,29.64,NW,305,19.0,34.0,36,0.00,,,0.00,56.0,meteohub,2013-02-17 21:57:00,
2013-02-17 17:02:00,28.8,4.5,29.65,NW,313,17.0,29.0,35,0.00,,,0.00,39.0,meteohub,2013-02-17 22:02:00,
2013-02-17 17:07:00,28.6,4.5,29.65,WNW,293,13.0,28.0,35,0.00,,,0.00,32.0,meteohub,2013-02-17 22:07:00,
2013-02-17 17:13:00,28.4,4.8,29.66,NW,325,10.0,28.0,36,0.00,,,0.00,23.0,meteohub,2013-02-17 22:13:00,
2013-02-17 17:18:00,28.2,5.9,29.66,WNW,286,15.0,26.0,38,0.00,,,0.00,16.0,meteohub,2013-02-17 22:18:00,
2013-02-17 17:23:00,28.0,5.7,29.66,West,280,6.0,23.0,38,0.00,,,0.00,11.0,meteohub,2013-02-17 22:23:00,
2013-02-17 17:28:00,27.9,5.5,29.67,West,263,10.0,25.0,38,0.00,,,0.00,7.0,meteohub,2013-02-17 22:28:00,
2013-02-17 17:33:00,27.7,5.9,29.67,WNW,303,7.0,25.0,39,0.00,,,0.00,5.0,meteohub,2013-02-17 22:33:00,
2013-02-17 17:38:00,27.3,5.5,29.68,NW,305,9.0,22.0,39,0.00,,,0.00,0.0,meteohub,2013-02-17 22:38:00,
2013-02-17 17:44:00,27.1,5.5,29.68,NNW,339,6.0,28.0,39,0.00,,,0.00,0.0,meteohub,2013-02-17 22:44:00,
2013-02-17 17:49:00,27.0,5.4,29.69,NW,317,10.0,28.0,39,0.00,,,0.00,0.0,meteohub,2013-02-17 22:49:00,
2013-02-17 17:54:00,26.8,5.7,29.70,North,355,9.0,28.0,40,0.00,,,0.00,0.0,meteohub,2013-02-17 22:54:00,
2013-02-17 17:59:00,26.6,6.6,29.70,NW,315,5.0,23.0,42,0.00,,,0.00,0.0,meteohub,2013-02-17 22:59:00,
2013-02-17 18:04:00,26.4,5.4,29.70,WNW,290,12.0,23.0,40,0.00,,,0.00,0.0,meteohub,2013-02-17 23:04:00,
2013-02-17 18:09:00,26.2,5.7,29.70,NW,306,16.0,23.0,41,0.00,,,0.00,0.0,meteohub,2013-02-17 23:09:00,
2013-02-17 18:15:00,26.1,5.5,29.70,West,273,13.0,25.0,41,0.00,,,0.00,0.0,meteohub,2013-02-17 23:15:00,
2013-02-17 18:20:00,25.9,5.9,29.71,SSW,209,0.0,25.0,42,0.00,,,0.00,0.0,meteohub,2013-02-17 23:20:00,
2013-02-17 18:25:00,25.9,5.4,29.71,WNW,303,13.0,28.0,41,0.00,,,0.00,0.0,meteohub,2013-02-17 23:25:00,
2013-02-17 18:30:00,25.5,5.0,29.72,WNW,295,4.0,28.0,41,0.00,,,0.00,0.0,meteohub,2013-02-17 23:30:00,
2013-02-17 18:35:00,25.3,5.9,29.73,NW,312,6.0,24.0,43,0.00,,,0.00,0.0,meteohub,2013-02-17 23:35:00,
2013-02-17 18:41:00,25.2,5.7,29.73,NNW,331,5.0,21.0,43,0.00,,,0.00,0.0,meteohub,2013-02-17 23:41:00,
2013-02-17 18:46:00,25.2,5.4,29.73,NNW,341,14.0,19.0,42,0.00,,,0.00,0.0,meteohub,2013-02-17 23:46:00,
2013-02-17 18:51:00,25.0,5.2,29.74,West,279,13.0,27.0,42,0.00,,,0.00,0.0,meteohub,2013-02-17 23:51:00,
2013-02-17 18:56:00,25.0,5.7,29.75,NW,304,17.0,27.0,43,0.00,,,0.00,0.0,meteohub,2013-02-17 23:56:00,
2013-02-17 19:01:00,24.6,5.4,29.75,WNW,302,11.0,27.0,43,0.00,,,0.00,0.0,meteohub,2013-02-18 00:01:00,
2013-02-17 19:06:00,24.4,5.2,29.76,NNW,345,13.0,21.0,43,0.00,,,0.00,0.0,meteohub,2013-02-18 00:06:00,
2013-02-17 19:11:00,24.3,5.0,29.76,WNW,299,12.0,29.0,43,0.00,,,0.00,0.0,meteohub,2013-02-18 00:11:00,
2013-02-17 19:16:00,24.1,4.8,29.76,NW,304,6.0,29.0,43,0.00,,,0.00,0.0,meteohub,2013-02-18 00:16:00,
2013-02-17 19:22:00,23.9,5.2,29.76,West,262,11.0,29.0,44,0.00,,,0.00,0.0,meteohub,2013-02-18 00:22:00,
2013-02-17 19:27:00,23.7,5.0,29.76,NNW,333,7.0,23.0,44,0.00,,,0.00,0.0,meteohub,2013-02-18 00:27:00,
2013-02-17 19:32:00,23.5,4.8,29.76,WSW,254,7.0,23.0,44,0.00,,,0.00,0.0,meteohub,2013-02-18 00:32:00,
2013-02-17 19:37:00,23.4,4.6,29.77,WNW,296,6.0,20.0,44,0.00,,,0.00,0.0,meteohub,2013-02-18 00:37:00,
2013-02-17 19:42:00,23.2,4.5,29.77,WNW,296,12.0,24.0,44,0.00,,,0.00,0.0,meteohub,2013-02-18 00:42:00,
2013-02-17 19:47:00,23.2,4.5,29.77,WNW,289,13.0,24.0,44,0.00,,,0.00,0.0,meteohub,2013-02-18 00:47:00,
2013-02-17 19:52:00,22.8,4.1,29.78,WNW,292,5.0,24.0,44,0.00,,,0.00,0.0,meteohub,2013-02-18 00:52:00,
2013-02-17 19:57:00,22.6,3.9,29.78,NW,308,8.0,22.0,44,0.00,,,0.00,0.0,meteohub,2013-02-18 00:57:00,
2013-02-17 20:02:00,22.6,4.5,29.77,NNW,337,9.0,22.0,45,0.00,,,0.00,0.0,meteohub,2013-02-18 01:02:00,
2013-02-17 20:07:00,22.5,4.3,29.78,NW,316,11.0,24.0,45,0.00,,,0.00,0.0,meteohub,2013-02-18 01:07:00,
2013-02-17 20:12:00,22.3,4.1,29.78,WNW,302,17.0,24.0,45,0.00,,,0.00,0.0,meteohub,2013-02-18 01:12:00,
2013-02-17 20:17:00,22.1,4.5,29.78,West,267,18.0,24.0,46,0.00,,,0.00,0.0,meteohub,2013-02-18 01:17:00,
2013-02-17 20:22:00,21.7,4.1,29.78,NW,323,10.0,26.0,46,0.00,,,0.00,0.0,meteohub,2013-02-18 01:22:00,
2013-02-17 20:27:00,21.6,3.6,29.79,NW,321,13.0,26.0,45,0.00,,,0.00,0.0,meteohub,2013-02-18 01:27:00,
2013-02-17 20:32:00,21.4,3.7,29.79,WNW,300,8.0,24.0,46,0.00,,,0.00,0.0,meteohub,2013-02-18 01:32:00,
2013-02-17 20:37:00,21.4,3.7,29.79,NW,311,11.0,30.0,46,0.00,,,0.00,0.0,meteohub,2013-02-18 01:37:00,
2013-02-17 20:42:00,21.0,3.6,29.80,NW,306,16.0,30.0,46,0.00,,,0.00,0.0,meteohub,2013-02-18 01:42:00,
2013-02-17 20:47:00,20.8,3.7,29.80,NW,322,13.0,31.0,47,0.00,,,0.00,0.0,meteohub,2013-02-18 01:47:00,
2013-02-17 20:52:00,20.7,3.6,29.80,WNW,294,22.0,31.0,47,0.00,,,0.00,0.0,meteohub,2013-02-18 01:52:00,
2013-02-17 20:57:00,20.7,3.6,29.80,NNW,328,9.0,31.0,47,0.00,,,0.00,0.0,meteohub,2013-02-18 01:57:00,
2013-02-17 21:02:00,20.5,3.9,29.80,WNW,297,20.0,29.0,48,0.00,,,0.00,0.0,meteohub,2013-02-18 02:02:00,
2013-02-17 21:07:00,20.5,3.9,29.80,WNW,302,15.0,29.0,48,0.00,,,0.00,0.0,meteohub,2013-02-18 02:07:00,
2013-02-17 21:12:00,20.3,3.7,29.81,NNW,331,12.0,29.0,48,0.00,,,0.00,0.0,meteohub,2013-02-18 02:12:00,
2013-02-17 21:17:00,20.1,3.6,29.81,NW,325,9.0,29.0,48,0.00,,,0.00,0.0,meteohub,2013-02-18 02:17:00,
2013-02-17 21:22:00,20.1,4.5,29.81,WNW,286,14.0,29.0,50,0.00,,,0.00,0.0,meteohub,2013-02-18 02:22:00,
2013-02-17 21:27:00,19.9,3.9,29.81,WNW,290,9.0,29.0,49,0.00,,,0.00,0.0,meteohub,2013-02-18 02:27:00,
2013-02-17 21:32:00,19.9,3.9,29.81,NW,323,11.0,31.0,49,0.00,,,0.00,0.0,meteohub,2013-02-18 02:32:00,
2013-02-17 21:37:00,19.8,3.7,29.81,NNW,347,6.0,31.0,49,0.00,,,0.00,0.0,meteohub,2013-02-18 02:37:00,
2013-02-17 21:42:00,19.8,3.7,29.81,WNW,302,17.0,31.0,49,0.00,,,0.00,0.0,meteohub,2013-02-18 02:42:00,
2013-02-17 21:47:00,19.8,3.7,29.82,West,280,12.0,28.0,49,0.00,,,0.00,0.0,meteohub,2013-02-18 02:47:00,
2013-02-17 21:52:00,19.6,3.6,29.81,NW,317,14.0,32.0,49,0.00,,,0.00,0.0,meteohub,2013-02-18 02:52:00,
2013-02-17 21:57:00,19.6,3.9,29.82,WNW,300,7.0,32.0,50,0.00,,,0.00,0.0,meteohub,2013-02-18 02:57:00,
2013-02-17 22:02:00,19.4,3.7,29.82,NW,313,14.0,22.0,50,0.00,,,0.00,0.0,meteohub,2013-02-18 03:02:00,
2013-02-17 22:07:00,19.4,3.7,29.82,NW,321,10.0,22.0,50,0.00,,,0.00,0.0,meteohub,2013-02-18 03:07:00,
2013-02-17 22:12:00,19.2,3.2,29.82,North,355,14.0,24.0,49,0.00,,,0.00,0.0,meteohub,2013-02-18 03:12:00,
2013-02-17 22:17:00,19.0,3.0,29.82,NW,326,8.0,33.0,49,0.00,,,0.00,0.0,meteohub,2013-02-18 03:17:00,
2013-02-17 22:22:00,19.0,3.4,29.83,WNW,289,15.0,33.0,50,0.00,,,0.00,0.0,meteohub,2013-02-18 03:22:00,
2013-02-17 22:27:00,19.0,3.9,29.83,WNW,292,13.0,33.0,51,0.00,,,0.00,0.0,meteohub,2013-02-18 03:27:00,
2013-02-17 22:32:00,18.9,3.4,29.83,WNW,302,22.0,27.0,50,0.00,,,0.00,0.0,meteohub,2013-02-18 03:32:00,
2013-02-17 22:37:00,18.9,3.4,29.83,NW,311,16.0,33.0,50,0.00,,,0.00,0.0,meteohub,2013-02-18 03:37:00,
2013-02-17 22:42:00,18.9,3.4,29.83,NW,315,11.0,33.0,50,0.00,,,0.00,0.0,meteohub,2013-02-18 03:42:00,
2013-02-17 22:47:00,18.7,3.6,29.83,WSW,257,8.0,30.0,51,0.00,,,0.00,0.0,meteohub,2013-02-18 03:47:00,
2013-02-17 22:52:00,18.7,3.2,29.83,NW,311,13.0,27.0,50,0.00,,,0.00,0.0,meteohub,2013-02-18 03:52:00,
2013-02-17 22:57:00,18.7,3.2,29.83,NNW,333,12.0,24.0,50,0.00,,,0.00,0.0,meteohub,2013-02-18 03:57:00,
2013-02-17 23:03:00,18.5,3.0,29.84,NW,311,8.0,24.0,50,0.00,,,0.00,0.0,meteohub,2013-02-18 04:03:00,
2013-02-17 23:08:00,18.3,3.6,29.83,NW,324,14.0,22.0,52,0.00,,,0.00,0.0,meteohub,2013-02-18 04:08:00,
2013-02-17 23:13:00,18.3,3.6,29.84,WNW,300,12.0,22.0,52,0.00,,,0.00,0.0,meteohub,2013-02-18 04:13:00,
2013-02-17 23:18:00,18.3,3.2,29.84,WNW,302,13.0,21.0,51,0.00,,,0.00,0.0,meteohub,2013-02-18 04:18:00,
2013-02-17 23:23:00,18.3,3.6,29.84,NW,304,9.0,26.0,52,0.00,,,0.00,0.0,meteohub,2013-02-18 04:23:00,
2013-02-17 23:28:00,18.1,3.6,29.84,NW,323,18.0,29.0,52,0.00,,,0.00,0.0,meteohub,2013-02-18 04:28:00,
2013-02-17 23:33:00,18.1,3.6,29.85,NW,319,8.0,29.0,52,0.00,,,0.00,0.0,meteohub,2013-02-18 04:33:00,
2013-02-17 23:39:00,18.1,3.6,29.84,WNW,298,14.0,29.0,52,0.00,,,0.00,0.0,meteohub,2013-02-18 04:39:00,
2013-02-17 23:44:00,18.0,3.4,29.85,WNW,295,11.0,25.0,52,0.00,,,0.00,0.0,meteohub,2013-02-18 04:44:00,
2013-02-17 23:49:00,18.0,3.7,29.85,West,265,4.0,25.0,53,0.00,,,0.00,0.0,meteohub,2013-02-18 04:49:00,
2013-02-17 23:54:00,18.0,3.4,29.85,NNW,334,17.0,25.0,52,0.00,,,0.00,0.0,meteohub,2013-02-18 04:54:00,
2013-02-17 23:59:00,18.0,3.7,29.85,West,277,14.0,25.0,53,0.00,,,0.00,0.0,meteohub,2013-02-18 04:59:00,